Location: Powder Track
(41.8531°N, 72.3584°W)
Time: 23:22:31
(UTC+00:00)

Vanguard 2 Rocket - Pass Details

Date: 01 August 2021
Orbit: 556 x 3324 km, 32.9° (Epoch: 22 September)

Event Time Altitude Azimuth Distance (km) Brightness Sun altitude
Rises 16:34:42 0° 258° (WSW) 2,993 9.6 65.6°
Reaches altitude 10° 16:37:19 10° 239° (WSW) 2,288 9.2 65.7°
Maximum altitude 16:41:05 19° 193° (SSW) 2,058 9.4 65.8°
Drops below altitude 10° 16:46:08 10° 151° (SSE) 3,220 10.2 65.9°
Sets 16:50:48 0° 136° (SE) 4,738 10.8 66.0°
